Location: Angwan Shehu
(11.2514°N, 7.4613°E)
Time: 23:54:11
(UTC+00:00)

Vanguard 3 - Pass Details

Date: 03 August 2021
Orbit: 510 x 3260 km, 33.3° (Epoch: 18 September)

Event Time Altitude Azimuth Distance (km) Brightness Sun altitude
Rises 19:58:55 0° 302° (WNW) 6,416 12.9 -29.2°
Reaches altitude 10° 20:03:25 10° 310° (NW) 5,691 12.3 -30.2°
Maximum altitude 20:20:31 40° 15° (NNE) 4,214 10.7 -33.9°
Enters shadow 20:32:04 23° 66° (ENE) 4,959 10.8 -36.3°
